This demonstration page uses our WeatherBlox Daily Observations layout. Learn more.

Left ArrowRight Arrow

44.31136, -96.79839

Hourly Observations for August 8, 2017

Temp ( °F °C ) Dew Point ( °F °C ) Humidity (%) Winds ( mph kmh ) Pressure ( in mb ) Visibility ( mi km ) Precip ( " mm )
12:56 am 00:56 Clear 58 14.4 56 13.3 93 93 Calm 30.25 1024 N/A 0.00 0.00
1:56 am 01:56 Clear 58 14.4 56 13.3 93 93 Calm 30.25 1024 N/A 0.00 0.00
2:56 am 02:56 Clear 58 14.4 56 13.3 93 93 SE 6 9 30.24 1024 N/A 0.00 0.00
3:56 am 03:56 Clear 56 13.3 54 12.2 93 93 ESE 3 6 30.24 1024 N/A 0.00 0.00
4:56 am 04:56 Clear 55 12.8 53 11.7 93 93 SE 5 7 30.24 1024 N/A 0.00 0.00
5:56 am 05:56 Clear 54 12.2 52 11.1 93 93 SSE 3 6 30.24 1024 N/A 0.00 0.00
6:56 am 06:56 Sunny 54 12.2 52 11.1 93 93 SSE 5 7 30.25 1024 N/A 0.00 0.00
7:56 am 07:56 Sunny 59 15 56 13.3 90 90 S 3 6 30.25 1025 N/A 0.00 0.00
8:56 am 08:56 Sunny 65 18.3 57 13.9 76 76 Calm 30.24 1024 N/A 0.00 0.00
9:56 am 09:56 Sunny 69 20.6 59 15 70 70 SSW 7 11 30.25 1024 N/A 0.00 0.00
10:56 am 10:56 Sunny 73 22.8 59 15 62 62 WSW 9 15 30.24 1024 N/A 0.00 0.00
11:56 am 11:56 Mostly Sunny 75 23.9 57 13.9 54 54 SSW 7 11 30.23 1024 N/A 0.00 0.00
12:56 pm 12:56 Mostly Sunny 75 23.9 56 13.3 52 52 WSW 5 7 30.22 1023 N/A 0.00 0.00
1:56 pm 13:56 Partly Cloudy 77 25 54 12.2 45 45 S 10 17 30.20 1023 N/A 0.00 0.00
2:56 pm 14:56 Mostly Sunny 78 25.6 53 11.7 42 42 SSW 8 13 30.18 1022 N/A 0.00 0.00
3:56 pm 15:56 Mostly Sunny 78 25.6 54 12.2 43 43 SSW 8 13 30.16 1021 N/A 0.00 0.00
4:56 pm 16:56 Sunny 78 25.6 56 13.3 47 47 S 10 17 30.14 1021 N/A 0.00 0.00
5:56 pm 17:56 Mostly Sunny 77 25 55 12.8 47 47 S 13 20 30.12 1020 N/A 0.00 0.00
6:56 pm 18:56 Sunny 75 23.9 56 13.3 52 52 S 8 13 30.11 1020 N/A 0.00 0.00
7:56 pm 19:56 Sunny 72 22.2 57 13.9 59 59 S 7 11 30.11 1020 N/A 0.00 0.00
8:56 pm 20:56 Clear 69 20.6 58 14.4 68 68 SSE 8 13 30.11 1020 N/A 0.00 0.00
9:56 pm 21:56 Clear 67 19.4 59 15 76 76 SSE 8 13 30.12 1020 N/A 0.00 0.00
10:56 pm 22:56 Clear 65 18.3 58 14.4 78 78 SSE 9 15 30.11 1020 N/A 0.00 0.00
11:56 pm 23:56 Clear 64 17.8 58 14.4 81 81 SSE 12 19 30.11 1020 N/A 0.00 0.00

Powered by AerisWeather